This demonstration page uses our WeatherBlox Daily Observations layout. Learn more.

Left ArrowRight Arrow

38.89511, -77.03637

Hourly Observations for June 10, 2022

Temp ( °F °C ) Dew Point ( °F °C ) Humidity (%) Winds ( mph kmh ) Pressure ( in mb ) Visibility ( mi km ) Precip ( " mm )
12:52 am 00:52 Mostly Cloudy 68 20 50 10 53 53 NW 9 15 29.89 1012 10 16 0.00 0.00
1:52 am 01:52 Mostly Cloudy 66 18.9 50 10 56 56 WNW 6 9 29.89 1012 10 16 0.00 0.00
2:52 am 02:52 Mostly Cloudy 64 17.8 51 10.6 63 63 SSW 6 9 29.89 1012 10 16 0.00 0.00
3:52 am 03:52 Mostly Cloudy 62 16.7 51 10.6 67 67 W 7 11 29.89 1012 10 16 0.00 0.00
4:52 am 04:52 Partly Cloudy 62 16.7 51 10.6 67 67 Calm 29.89 1012 10 16 0.00 0.00
5:52 am 05:52 Mostly Sunny 62 16.7 51 10.6 67 67 NW 7 11 29.90 1013 10 16 0.00 0.00
6:52 am 06:52 Mostly Sunny 64 17.8 53 11.7 68 68 S 3 6 29.91 1013 10 16 0.00 0.00
7:52 am 07:52 Mostly Sunny 70 21.1 52 11.1 53 53 VRB 3 6 29.93 1014 10 16 0.00 0.00
8:52 am 08:52 Mostly Sunny 73 22.8 53 11.7 50 50 VRB 7 11 29.93 1014 10 16 0.00 0.00
9:52 am 09:52 Partly Cloudy 75 23.9 53 11.7 46 46 N 10 17 29.94 1014 10 16 0.00 0.00
10:52 am 10:52 Mostly Cloudy 76 24.4 53 11.7 45 45 NNW 10 17 29.95 1014 10 16 0.00 0.00
11:52 am 11:52 Partly Cloudy 77 25 55 12.8 47 47 NNW 6 9 29.93 1014 10 16 0.00 0.00
12:52 pm 12:52 Partly Cloudy 77 25 52 11.1 42 42 NNW 8 13 29.91 1013 10 16 0.00 0.00
1:52 pm 13:52 Partly Cloudy 79 26.1 53 11.7 41 41 NNW 12 19 29.91 1013 10 16 0.00 0.00
2:52 pm 14:52 Mostly Cloudy 78 25.6 53 11.7 42 42 N 7 11 29.88 1012 10 16 0.00 0.00
3:52 pm 15:52 Mostly Cloudy 81 27.2 52 11.1 37 37 E 6 9 29.87 1012 10 16 0.00 0.00
4:52 pm 16:52 Mostly Cloudy 81 27.2 50 10 34 34 N 10 17 29.88 1012 10 16 0.00 0.00
5:52 pm 17:52 Mostly Cloudy 82 27.8 51 10.6 34 34 Calm 29.88 1012 10 16 0.00 0.00
6:52 pm 18:52 Mostly Cloudy 77 25 56 13.3 48 48 S 5 7 29.88 1012 10 16 0.00 0.00
7:52 pm 19:52 Mostly Cloudy 76 24.4 56 13.3 50 50 S 8 13 29.88 1012 10 16 0.00 0.00
8:52 pm 20:52 Cloudy 76 24.4 56 13.3 50 50 S 6 9 29.89 1012 10 16 0.00 0.00
9:52 pm 21:52 Mostly Cloudy 75 23.9 55 12.8 50 50 SW 5 7 29.91 1013 10 16 0.00 0.00
10:52 pm 22:52 Cloudy 75 23.9 55 12.8 50 50 S 3 6 29.93 1013 10 16 0.00 0.00
11:52 pm 23:52 Cloudy 74 23.3 59 15 60 60 S 6 9 29.93 1013 10 16 0.00 0.00

Powered by AerisWeather